Regional Weather Roundup
Issued by NWS Lake Charles, LA

Home | Current Version | Previous Version | Text Only | Print | Product List | Glossary On
Versions: 1 2 3 4 5 6 7 8 9 10 11 12 13 14 15 16 17 18 19 20 21 22 23 24 25 26 27 28 29 30 31 32 33 34 35 36 37 38 39 40 41 42 43 44 45 46 47 48 49 50
000
ASUS44 KLCH 210510
RWRLCH
RWRLCH
REGIONAL WEATHER ROUNDUP
NATIONAL WEATHER SERVICE LAKE CHARLES LA
1200 AM CDT THU AUG 21 2014

Note: "fair" indicates few or no clouds below 12,000 feet with no
significant weather and/or obstructions to visibility.


ACROSS SOUTHEAST TEXAS

CITY           SKY/WX    TMP DP  RH WIND       PRES   REMARKS
BEAUMONT       MOCLDY    83  78  85 S8        30.03R
BEAUMONT CITY    N/A     81  78  91 S7        30.03S
ORANGE         MOCLDY    84  78  82 S8        30.04R
JASPER         PTCLDY    73  71  93 CALM      30.06S
$$

ACROSS CENTRAL LOUISIANA

CITY           SKY/WX    TMP DP  RH WIND       PRES   REMARKS
LEESVILLE      MOCLDY    74  73  97 S9        30.06R
FULLERTON        N/A     76  72  87 CALM      30.05R
ALEXANDRIA INT CLOUDY    77  72  84 SE9       30.06R
ESLER FIELD    CLOUDY    75  72  90 CALM      30.09R
DERIDDER         N/A     76  73  91 CALM      30.08R
OAKDALE        CLOUDY    73  72  96 CALM      30.08R
OPELOUSAS        N/A     84  84 100 SE5       30.07R HX 103
$$

ACROSS SOUTHWEST AND SOUTH CENTRAL LOUISIANA

CITY           SKY/WX    TMP DP  RH WIND       PRES   REMARKS
SULPHUR        MOCLDY    81  79  93 SE3       30.05R
LAKE CHARLES   MOCLDY    78  75  90 CALM      30.04R
CHENNAULT INT  MOCLDY    77  74  90 CALM      30.05R
CAMERON PHI    PTCLDY    86  79  79 S16       30.04R
DEQUINCY       MOCLDY    75  74  95 CALM      30.05R
JENNINGS         N/A     75  75  98 E5        30.06R
LAFAYETTE      MOCLDY    77  75  93 CALM      30.08R
NEW IBERIA     MOCLDY    78  74  87 SE3       30.08R
ABBEVILLE        N/A     78  77  96 E3        30.07R
PATTERSON      CLOUDY   N/A N/A N/A MISG        N/A
SALT POINT       N/A     82  77  84 SE3       30.06F
$$

SELECTED SITES ACROSS THE REGION

CITY           SKY/WX    TMP DP  RH WIND       PRES   REMARKS
HOUSTON BUSH   PTCLDY    83  78  85 S7        30.02S
HOUSTON HOBBY  PTCLDY    81  77  88 S6        30.02R
GALVESTON      PTCLDY    85  79  82 S16       30.04R
COLLEGE STAT   CLEAR     82  74  76 S12       30.00S
CONROE         PTCLDY    75  74  96 CALM      30.03S
HUNTSVILLE     CLEAR     80  75  84 S9        30.02S
LUFKIN         PTCLDY    76  71  85 SE6       30.02S
SHREVEPORT     PTCLDY    76  70  82 SE8       30.03R
MONROE         PTCLDY    77  71  82 SE5       30.07R
NATCHEZ MS     CLOUDY    75  72  88 S3        30.08S
BATON ROUGE    MOCLDY    75  73  93 CALM      30.08R
N.O. INTL ARPT PTCLDY    78  72  81 S5        30.09S
SLIDELL        CLEAR     77  73  87 CALM      30.08F
$$

MARINE REPORTS

STATION/POSITION TIME  TEMP    WIND        PRES    VSBY  WAVE
                       AIR SEA DIR/SP/G                  HT/PER
                 (UTC) (F)     (DEG/KT/KT) (MB)    (MI)  (FT/S)
BUOY 30 S HIGH I NOT AVBL
SEA RIM ST PARK  0500   85     180/ 13/ 16 1017.5R
PORT ARTHUR      0500      88  180/  7/ 13 1016.9R
SABINE PASS N    0500   85 87  190/ 12/ 16 1016.9R
TEXAS POINT      0500   85 87  180/ 17/ 20 1017.0R
CALCASIEU PASS   0500   86 87  200/ 19/ 21 1018.0R
LK CHARLES BEACH 0500   79 87              1018.0R
MARSH ISLAND     0400   87     180/ 11/ 15   N/A
FRESH WATER LOCK 0500   85 87  140/ 11/ 14 1017.6S
AMERADA PASS     0500   80 85  130/  3/  5 1018.3F
$$


USA.gov is the U.S. government's official web portal to all federal, state and local government web resources and services.